Showing default

SJ-25, 62485

Orbit data source: Space-Track

SJ-25, 62485 is a payload satellite owned by SAST (CN) in GEO that was launched on Mon, 06 Jan 2025 UTC via a CHANG ZHENG 3B launch vehicle from the Xichang Space Center, China (XSC). Payloads include a variety of satellites, spacecraft, and rockets equipped with specific instruments for various scientific and technological missions. These include communications satellites like Starlink; space stations such as the ISS; scientific satellites like the Hubble; Earth observation satellites from companies like Planet Labs, Umbra, and HawkEye 360; GPS; miniature CubeSats for education and research; and military/defense satellites.

Not visible in the next 10 days
SJ-25 details
Identifier
62485, 2025-002A
Orbit
GEO
Last TLE update4 hours ago
Origin
Flag of CNSAST (CN / PRC)
ManufacturerSAST?
MissionOperational spacecraft
Bus & MotorSJ21, Unknown motor
Mass~5,000 kg wet, ~2,500 kg dry
Launch date (UTC)
2025-01-06 (3 weeks ago)
Launch vehicle
CHANG ZHENG 3B
Launch site
Xichang Space Center, China (XSC)
Object type
Payload
Rocket body
Debris
Shape & HBRUnknown
Radar Cross SectionLarge (>1 m²)

Expand to show TLE details & history

TLE from 4 hours ago
0 SJ-25
1 62485U 25002A   25025.63858229 -.00000357  00000-0  00000-0 0  9997
2 62485  10.2292  43.6079 0056423 183.4811 248.0648  1.00272640   282
Epoch: 2025-01-25T15:19Z
Definitive object data (Epoch: 2025-01-25T15:19:33.509Z)
Latitude9.68228°
Longitude119.20554°
Altitude35,875.373 km
Speed3.068 km/s
True Right ascension07h 37m 07s
True Declination9° 40' 22"
Sunlit
Object was in daylight at TLE epoch
Visualization TLE readout
Latitude7.83432°
Longitude179.06688°
Altitude35,643.669 km
Speed3.085 km/s
Apparent Right ascension11h 18m 56s
Apparent Declination2° 05' 29"
Sunlit
Object is in daylight
Visualization observer readout
Local Sidereal Time20:35:58
Azimuth308.232° NW
Elevation-33.87°
Doppler factor1
Orbital elements
Apogee altitude36,025.287 km
Perigee altitude35,549.466 km
Semi-major axis42,165.513 km
Eccentricity0.0056423
Inclination10.2292°
RAAN43.6079°
Arg. of periapsis183.4811°
True anomaly247.46663°
Mean anomaly248.0648°
Eccentric anomaly247.76556°
Mean motion0.25067 °/min
BSTARUnknown
Orbital period1436.14 mins
Loading historical data...
62485 neighbors
Authenticating...
Loading maneuver chart data...
Loading historical data...
Loading historical data...
Loading historical data...
Loading historical data...
Loading historical data...
Loading historical data...
Loading historical data...
Other satellites on launch #2 in the year 2025 (2025-01-06 UTC)

SJ-25 Visibility forecast

Observer location: undefined°, undefined

SJ-25 is not visible in the next 10 days
Span
Click to sort rows by Start time (UTC) header in descending order
Start Az.
Max El. time (UTC)
Max El. Az.
Max El.
End time (UTC)
End Az.
|